Simultaneous Nadir Overpasses (SNOs) Predictions

Prediction of SNOs between AQUA and METOP-A Satellite Orbit:

Table of predicted SNOs for the next 14.0 days since TLE Epoch: 7/12/2019
Index Date (AQUA) Time (AQUA) Lat,Lon (AQUA) SZA (AQUA ) Date (METOP-A) Time (METOP-A) Lat,Lon (METOP-A) SZA (METOP-A ) Distance(km) Time Diff (sec)
1 07/14/2019 14:17:03 75.27, -43.43 53.82 07/14/2019 14:15:58 75.28, -43.30 53.84 3.86 65
2 07/14/2019 15:06:30 -75.30, 124.11 126.14 07/14/2019 15:06:39 -75.31, 124.10 126.14 0.45 9
3 07/14/2019 15:56:03 75.62, -69.13 54.22 07/14/2019 15:57:12 75.64, -67.55 54.15 43.51 69
4 07/17/2019 09:51:17 75.27, 23.01 54.27 07/17/2019 09:50:22 75.26, 23.01 54.28 0.46 55
5 07/17/2019 10:40:44 -75.30,-169.44 125.69 07/17/2019 10:41:03 -75.30,-169.57 125.69 3.95 19
6 07/20/2019 05:25:30 75.27, 89.44 54.78 07/20/2019 05:24:44 75.29, 89.46 54.81 2.49 46
7 07/20/2019 06:14:58 -75.35,-103.14 125.13 07/20/2019 06:15:25 -75.33,-103.11 125.16 2.75 27
8 07/23/2019 00:59:44 75.28, 155.86 55.34 07/23/2019 00:59:08 75.27, 155.76 55.34 2.80 36
9 07/23/2019 01:49:12 -75.36, -36.72 124.57 07/23/2019 01:49:48 -75.36, -36.65 124.58 1.92 36
10 07/25/2019 20:33:58 75.30,-137.74 55.94 07/25/2019 20:33:31 75.30,-137.79 55.96 1.70 27
11 07/25/2019 21:23:26 -75.38, 29.68 123.96 07/25/2019 21:24:12 -75.35, 29.66 124.00 3.45 46




NCC Satellite Simultaneous Nadir Overpasses (SNOs) Prediction Service
